Weather History for Van Nuys, CA

Change the Weather History Date:

Sunday, May 10, 2009

  Actual Average Record
Temperature  
Mean Temperature 68 °F -  
Max Temperature 79 °F 75 °F 89 °F (2007)
Min Temperature 57 °F 53 °F 46 °F (2011)
Cooling Degree Days 2    
Growing Degree Days 18 (Base 50)    
Moisture  
Dew Point 54 °F    
Average Humidity 69    
Maximum Humidity 90    
Minimum Humidity 45    
Precipitation  
Precipitation 0.00 in - - ()
Sea Level Pressure  
Sea Level Pressure 29.87 in    
Wind  
Wind Speed 4 mph (SE)    
Max Wind Speed 9 mph    
Max Gust Speed -    
Visibility 6 miles    
Events      
Averages and records for this station are not official NWS values.
T = Trace of Precipitation, MM = Missing Value Source: NWS Daily Summary

Daily Weather History Graph

Daily Weather History Graph

Search for Another Location

Airport:

Trip Planner

Search our weather history database for the weather conditions in past years. The results will help you decide how hot, cold, wet, or windy it might be!

Date:

Astronomy

May. 10, 2009 Rise Set
Actual Time 5:55 AM PDT 7:45 PM PDT
Civil Twilight 5:28 AM PDT 8:12 PM PDT
Nautical Twilight 4:55 AM PDT 8:46 PM PDT
Astronomical Twilight 4:20 AM PDT 9:21 PM PDT
Moon 9:43 PM PDT (5/10) 6:37 AM PDT (5/10)
Length of Visible Light 14h 44m
Length of Day
13h 49m
Full, 97% of the Moon is Illuminated
May 10
Full
May 17
Last Quarter
May 24
New
May 30
First Quarter
Jun 7
Full

Hourly Weather History & Observations

Time (PDT) Temp. Dew Point Humidity Pressure Visibility Wind Dir Wind Speed Gust Speed Precip Events Conditions
12:51 AM 59.0 °F 54.0 °F 83% 29.88 in 5.0 mi SE 3.5 mph - N/A   Haze
1:26 AM 57.2 °F 53.6 °F 88% 29.89 in 5.0 mi ESE 3.5 mph - N/A   Scattered Clouds
1:35 AM 57.2 °F 53.6 °F 88% 29.89 in 5.0 mi SSE 3.5 mph - N/A   Mostly Cloudy
1:51 AM 57.9 °F 55.0 °F 90% 29.87 in 4.0 mi SE 4.6 mph - N/A   Overcast
2:51 AM 59.0 °F 55.0 °F 87% 29.87 in 4.0 mi SE 3.5 mph - N/A   Overcast
3:51 AM 59.0 °F 55.0 °F 87% 29.86 in 4.0 mi East 3.5 mph - N/A   Overcast
4:51 AM 59.0 °F 55.0 °F 87% 29.87 in 4.0 mi SE 5.8 mph - N/A   Overcast
5:51 AM 59.0 °F 54.0 °F 83% 29.87 in 3.0 mi SE 5.8 mph - N/A   Haze
6:51 AM 59.0 °F 54.0 °F 83% 29.88 in 3.0 mi SSE 4.6 mph - N/A   Haze
7:51 AM 60.1 °F 54.0 °F 80% 29.90 in 3.0 mi Calm Calm - N/A   Haze
8:51 AM 61.0 °F 55.0 °F 81% 29.91 in 3.0 mi Calm Calm - N/A   Haze
9:51 AM 63.0 °F 55.0 °F 75% 29.91 in 4.0 mi SSW 3.5 mph - N/A   Haze
10:15 AM 64.4 °F 55.4 °F 73% 29.93 in 4.0 mi Calm Calm - N/A   Haze
10:32 AM 66.2 °F 55.4 °F 68% 29.93 in 5.0 mi Variable 3.5 mph - N/A   Haze
10:51 AM 66.9 °F 55.0 °F 66% 29.91 in 5.0 mi Calm Calm - N/A   Haze
11:51 AM 73.0 °F 55.0 °F 53% 29.90 in 7.0 mi Variable 3.5 mph - N/A   Clear
12:51 PM 75.0 °F 55.0 °F 50% 29.88 in 8.0 mi Calm Calm - N/A   Clear
1:51 PM 75.9 °F 55.0 °F 48% 29.86 in 9.0 mi Calm Calm - N/A   Clear
2:51 PM 77.0 °F 55.0 °F 47% 29.86 in 9.0 mi ESE 9.2 mph - N/A   Clear
3:51 PM 77.0 °F 55.0 °F 47% 29.84 in 10.0 mi SSE 5.8 mph - N/A   Clear
4:51 PM 78.1 °F 55.0 °F 45% 29.82 in 10.0 mi SE 9.2 mph - N/A   Clear
5:51 PM 75.9 °F 55.0 °F 48% 29.82 in 10.0 mi SSE 6.9 mph - N/A   Clear
6:51 PM 73.0 °F 54.0 °F 51% 29.82 in 9.0 mi SE 8.1 mph - N/A   Clear
7:51 PM 69.1 °F 52.0 °F 54% 29.83 in 9.0 mi SE 5.8 mph - N/A   Clear
8:51 PM 66.0 °F 53.1 °F 63% 29.85 in 10.0 mi ESE 3.5 mph - N/A   Clear
9:51 PM 64.0 °F 54.0 °F 70% 29.86 in 9.0 mi Calm Calm - N/A   Clear
10:51 PM 64.0 °F 54.0 °F 70% 29.87 in 9.0 mi Calm Calm - N/A   Clear
11:51 PM 62.1 °F 54.0 °F 75% 29.86 in 7.0 mi Calm Calm - N/A   Clear